Weather in Krasnogorsky

Russia / Mari El Republic     56°09′08″N   48°19′21″E
temp.,
°C
wind,
m/s
gust,
m/s
humid.,
%
clouds,
%
prec.,
mm/h
press.,
hPa
HPBL,
m
28 february, sun
sun2800:00−18nnw489691 0.0 1007226
03:00−19nnw499680 0.0 1009247
06:00−21nnw389745 0.0 1009188
09:00−18nnw489441 0.0 1010270
12:00−14nnw479180 0.0 1011423
15:00−12n488988 0.0 1012521
18:00−17n349586 0.0 101480
21:00−19n239856 0.0 101733
1 march, mon
mon100:00−21nnw23980 0.0 101834
03:00−22nnw23980 0.0 102022
06:00−23nnw22990 0.0 102120
09:00−18nw12930 0.0 1022165
12:00−12w238882 0.0 1021393
15:00−10sw349191 0.1 1020465
18:00−14ssw369799 0.1 1017128
21:00−13ssw389697 0.1 1015203
2 march, tue
tue200:00−9ssw51195100 0.3 1010383
03:00−6ssw51295100 1.7 1006569
06:00−4sw51196100 1.5 1001593
09:00−1sw5998100 3.1 999522
12:000w48100100 1.2 997496
15:000w48100100 1.9 996506
18:00−1nw51194100 0.4 997676
21:00−5nw369595 0.4 998125
3 march, wed
wed300:00−6nw349796 0.0 99982
03:00−4nw269798 0.4 1000207
06:00−7nw379797 0.2 1001158
09:00−5nw379696 0.2 1002345
12:00−2nnw4793100 0.1 1004715
15:00−3nnw6991100 0.4 1005883
18:00−5nnw31190100 0.1 1007474
21:00−7nw4119298 0.2 1010481
4 march, thu
thu400:00−11wnw379673 0.0 1010154
03:00−13w359870 0.0 1010114
06:00−12w379791 0.1 1010182
09:00−8sw489496 0.1 1008327
12:00−4sw61391100 0.0 1005681
15:00−2wsw71394100 0.8 1002934
18:00−1wsw71496100 1.0 999959
21:000wsw81694100 1.6 9971152